Theta_e
306 309 310 310 310 309 309 311 311 311 311 310 310 310 309 305 303 303 304 304 303 303 304 303 304 305 305 305 306 306 306 307 307 307 308 309 308 307 307 308 308 309 312 311 310 309 309 310 309 307 308 313 316 317 316 317 316 315 318 319 316 316 315 316 319 316 314 315 316 312 312 312 315 332 341 340 341 339 339 340 340 341 340 343 344 344 346 347
305 307 310 310 310 310 310 311 312 311 310 310 310 311 311 309 305 303 303 304 304 304 303 303 304 304 305 305 306 306 306 306 307 309 311 311 310 308 308 307 308 310 312 311 310 308 308 309 308 308 311 314 315 316 316 316 315 315 317 317 317 318 314 313 316 314 313 314 314 312 313 313 312 321 332 342 340 338 344 341 339 342 342 344 344 345 347 346
303 305 308 310 311 310 311 312 312 311 310 310 309 310 311 311 308 305 303 303 303 304 304 303 303 304 305 305 305 305 305 307 310 313 314 314 312 309 308 307 308 310 312 311 310 309 308 309 309 310 314 315 315 315 314 314 314 313 313 316 320 318 314 312 312 313 313 313 312 312 312 313 314 313 321 339 339 341 347 343 339 342 342 343 345 347 347 345
303 303 306 308 310 311 311 312 312 312 311 310 309 309 311 311 309 306 303 303 303 303 303 304 303 303 304 304 305 305 305 310 315 315 316 317 315 311 308 308 308 310 312 311 310 309 308 311 311 313 315 314 313 313 313 313 313 312 312 318 317 312 313 314 312 314 313 313 312 312 312 313 315 314 324 338 340 339 339 338 337 340 341 342 345 346 345 345
302 303 303 306 309 311 311 311 312 312 311 310 309 309 310 311 311 308 304 303 303 303 303 304 303 303 303 303 304 304 307 317 319 315 316 317 316 314 310 309 308 310 311 310 311 309 308 312 313 313 314 313 313 313 314 313 312 312 311 313 312 310 312 314 312 313 313 313 312 311 313 314 313 316 326 332 334 335 332 333 332 336 340 341 344 346 344 346
302 302 303 304 306 309 310 311 312 312 312 311 310 309 309 310 312 312 308 304 303 304 304 304 303 303 302 303 304 304 309 318 318 315 316 317 317 315 312 309 309 310 310 310 311 309 309 312 313 313 313 312 313 314 314 313 312 314 314 310 310 311 311 313 313 312 313 312 311 312 313 313 312 315 323 325 327 328 327 331 333 335 339 340 344 345 344 346
302 302 302 303 303 306 308 310 311 312 312 311 310 309 309 310 310 312 311 307 304 303 304 304 304 303 303 303 303 305 308 313 315 316 317 317 318 316 313 310 308 310 311 311 311 309 310 312 313 312 313 313 313 313 314 312 311 314 314 310 311 312 311 313 313 312 312 311 311 312 312 313 312 312 324 333 333 331 330 333 334 337 339 342 345 343 344 345
301 301 302 302 303 303 305 307 310 311 312 311 310 309 309 309 309 311 312 311 307 305 304 304 304 303 303 302 304 306 307 311 315 317 317 316 317 315 314 311 309 310 310 312 311 309 310 312 313 313 315 314 312 313 312 311 311 312 313 311 311 311 311 312 312 313 312 311 312 311 311 312 312 315 332 341 339 337 336 337 337 338 340 343 345 343 344 344
301 301 302 302 303 303 303 304 307 310 311 311 311 309 309 309 309 310 311 312 310 308 306 304 303 303 303 303 305 308 309 314 315 315 316 315 315 314 313 311 310 310 310 311 310 309 310 312 314 313 314 313 311 312 310 311 312 311 311 310 310 310 312 312 312 314 312 312 311 311 313 311 315 325 339 342 339 340 338 337 337 338 341 343 343 343 344 343
301 301 301 302 302 303 303 303 304 307 309 311 311 310 309 309 308 309 310 311 311 311 309 306 305 303 303 303 306 310 312 316 315 314 315 313 313 313 313 311 311 310 309 310 308 310 312 312 314 314 315 312 311 311 308 310 311 310 310 310 311 310 311 312 312 313 311 311 310 312 313 312 320 329 337 341 340 340 338 338 338 338 341 342 343 343 343 343
302 301 301 301 302 303 303 303 303 304 307 309 310 310 309 309 308 308 309 310 311 312 311 310 307 304 303 303 306 310 313 316 315 315 314 313 311 310 311 311 310 309 309 308 308 311 313 313 315 313 314 312 311 311 309 310 310 311 310 311 312 310 310 311 310 310 310 312 310 313 312 311 321 327 335 342 339 339 338 337 338 339 341 341 342 342 342 343
303 302 302 301 302 303 303 303 303 303 305 307 309 310 309 309 309 308 307 308 310 311 311 311 309 306 304 303 305 309 312 315 315 315 314 313 310 308 309 310 309 309 308 308 310 313 313 314 315 314 313 312 312 311 311 312 311 312 311 313 316 312 313 311 309 309 310 313 311 312 311 312 317 319 334 341 339 339 337 337 338 338 340 340 342 342 342 343
303 303 303 302 301 302 303 303 303 303 303 304 307 308 309 309 309 308 307 307 308 310 311 311 310 308 306 305 307 309 310 314 315 314 315 313 309 307 308 308 308 308 307 308 310 312 312 313 313 314 313 312 313 312 312 311 310 312 310 312 315 315 317 312 308 309 310 312 312 312 312 317 315 313 332 343 338 339 337 337 339 338 339 339 341 342 341 342
303 303 303 302 302 301 302 303 303 303 303 303 304 306 308 308 309 308 307 307 308 309 311 311 310 310 308 307 308 310 310 312 314 314 315 312 309 307 307 308 308 307 308 308 309 310 311 312 312 312 312 312 312 310 312 313 313 313 310 314 314 312 319 315 309 310 312 312 312 312 312 318 317 314 334 344 337 338 338 337 339 338 338 338 340 341 340 341
303 303 303 303 303 302 302 303 303 303 303 303 303 304 305 306 307 307 307 307 307 309 311 311 310 310 310 309 308 310 311 312 314 314 314 312 309 308 308 308 307 307 309 309 309 310 310 311 311 312 312 312 312 313 316 318 319 316 311 318 318 312 318 319 311 310 313 312 311 312 313 317 315 319 337 343 338 339 337 338 338 337 337 337 338 339 339 340
302 303 303 303 303 303 302 303 304 303 303 304 303 303 304 304 306 306 306 307 307 310 311 310 311 311 311 312 311 312 313 313 314 315 315 312 311 310 310 309 309 309 310 311 310 310 311 311 311 312 311 309 312 318 320 320 326 323 315 319 319 314 317 318 313 310 310 311 311 311 315 318 314 322 339 343 339 339 338 339 337 336 337 336 337 337 339 339
302 302 303 302 303 303 303 303 303 304 304 304 304 304 304 304 305 306 307 308 311 313 311 311 312 311 313 313 312 313 314 315 315 316 315 313 312 312 312 312 312 312 312 312 312 312 312 312 311 311 313 314 316 319 318 317 322 324 320 321 320 316 315 317 317 312 309 311 312 311 316 318 315 326 342 343 340 340 338 339 337 336 336 336 336 336 338 338
302 302 302 302 303 303 303 303 303 304 305 304 305 306 306 307 308 310 311 314 316 314 312 312 311 310 311 310 310 313 314 314 314 316 315 313 312 312 312 312 312 312 313 311 311 312 312 310 311 313 316 318 319 320 320 319 320 319 319 321 319 317 315 316 319 315 311 312 312 311 314 314 317 331 343 341 341 341 338 339 338 336 336 335 335 336 337 338
302 302 302 302 302 303 303 304 304 304 305 306 307 307 309 311 312 314 317 318 316 314 314 313 311 311 311 310 311 312 313 314 314 315 315 313 311 311 312 312 313 312 310 311 311 310 310 310 311 314 316 317 318 318 319 320 321 317 315 317 317 317 317 317 316 315 312 312 313 313 313 313 323 335 342 341 341 340 339 340 338 337 336 336 335 335 337 338
301 302 302 302 302 302 303 304 304 304 304 306 307 308 310 311 313 316 316 316 315 314 314 314 313 313 313 313 313 313 313 314 315 315 315 313 311 311 312 311 312 311 311 315 314 309 310 312 313 316 319 321 322 319 317 318 317 314 314 316 316 316 316 316 316 316 313 312 313 313 315 321 331 337 339 340 341 339 339 339 338 338 336 336 336 336 337 338
301 301 302 302 302 302 303 303 304 304 304 307 308 309 311 310 312 314 313 313 314 314 313 314 314 314 314 314 314 315 314 315 315 314 314 313 312 311 311 311 312 311 311 311 311 312 312 313 317 321 321 323 325 321 317 316 316 315 315 317 317 316 317 316 315 317 315 313 313 313 317 322 328 335 336 337 340 338 338 338 337 338 337 337 337 336 337 338
301 302 302 302 302 302 302 302 304 305 305 306 307 310 312 310 310 311 311 312 313 314 315 315 314 314 315 314 315 315 314 315 315 315 313 313 312 311 310 311 313 314 312 309 311 315 315 316 320 319 317 319 322 321 319 316 317 318 317 317 317 316 317 316 317 319 317 316 314 313 316 318 321 329 331 333 338 337 336 337 337 337 337 336 336 336 337 338
301 302 301 302 302 302 302 302 303 304 305 306 307 310 311 309 309 311 312 313 314 315 315 315 315 314 315 314 314 314 314 315 315 315 314 312 312 311 309 311 313 314 313 312 314 315 314 317 317 314 314 317 317 320 322 318 317 320 318 317 318 316 315 317 321 322 320 319 317 316 318 319 321 323 323 325 330 331 333 335 336 337 336 336 335 335 336 337
301 301 301 302 302 302 302 302 303 304 305 306 308 310 310 309 312 314 313 314 317 317 315 315 315 314 315 314 314 314 314 314 315 316 314 313 311 310 310 311 311 312 312 314 315 314 314 314 312 314 319 318 315 319 322 318 318 324 322 319 319 318 315 316 320 324 327 322 319 323 323 319 322 324 323 322 323 327 332 333 335 335 335 334 334 334 335 337
301 301 302 302 301 302 302 302 304 306 306 306 308 310 309 310 314 314 314 318 320 319 316 315 316 315 315 314 314 314 314 314 315 316 314 313 312 311 311 310 310 312 312 313 313 313 314 310 309 315 319 316 315 319 322 319 319 325 326 321 320 321 319 320 321 324 332 324 316 322 322 318 324 326 323 322 323 327 330 331 333 333 333 334 333 334 335 336
300 301 302 302 302 302 302 303 304 305 305 306 308 310 309 312 315 313 317 323 324 322 318 315 315 316 314 314 314 314 315 315 315 315 315 314 313 312 311 309 311 312 312 313 313 315 315 310 311 317 319 317 315 318 322 321 318 319 324 322 319 321 320 323 323 321 324 322 316 320 321 320 325 324 320 320 324 328 329 331 331 330 333 333 332 334 335 336
300 301 301 302 302 301 302 302 303 302 304 307 310 310 309 312 314 312 317 320 320 319 317 315 314 314 314 314 314 315 317 316 315 315 315 314 313 312 312 312 310 309 310 311 314 316 315 313 314 318 323 320 316 320 322 320 318 320 322 320 319 321 321 325 330 325 321 319 319 325 325 321 321 321 321 321 323 327 329 331 329 328 331 333 332 333 334 335
300 300 300 301 301 302 301 302 302 303 305 310 312 311 311 312 313 315 317 315 313 314 315 313 313 312 312 314 315 315 316 315 315 315 315 315 314 311 312 312 311 313 312 311 317 318 315 315 317 319 321 319 320 325 322 316 317 322 321 318 319 322 324 329 331 330 325 318 319 328 325 320 324 329 324 321 326 330 330 331 329 326 328 331 332 332 333 334
300 300 300 301 301 302 301 301 302 303 308 314 313 313 312 311 312 316 316 313 312 314 313 313 313 312 312 314 314 314 314 314 314 313 313 314 312 312 312 310 311 313 310 311 318 320 314 312 314 317 318 319 325 324 318 316 317 318 316 315 317 320 326 332 329 328 327 321 321 325 321 316 326 334 325 318 324 331 331 330 325 323 325 330 331 331 332 333
299 299 300 300 301 301 301 302 302 302 308 313 315 314 312 312 319 318 314 314 314 314 313 313 314 312 312 313 313 314 314 313 313 311 312 313 312 312 311 310 310 313 316 318 318 316 313 311 312 315 315 317 322 316 310 313 312 312 317 318 317 322 329 333 331 328 324 323 324 325 322 318 320 329 327 319 317 320 324 326 324 321 322 326 329 330 331 332
300 299 300 300 300 301 301 302 303 303 308 312 315 314 310 314 321 319 315 315 315 316 315 314 314 312 312 313 313 314 313 313 312 312 313 313 312 312 311 312 312 316 326 325 318 315 314 313 313 315 312 312 315 311 307 309 311 314 323 321 316 322 327 328 330 326 321 324 326 324 323 318 318 323 322 320 318 316 317 319 320 320 319 323 327 329 330 331
300 300 300 300 300 301 301 301 303 306 308 312 314 313 313 314 315 317 320 317 316 318 316 315 316 314 313 313 314 314 314 314 312 313 314 313 313 313 311 315 316 318 322 322 319 319 318 317 315 314 312 310 314 314 309 309 314 317 321 322 319 321 322 322 324 323 323 324 321 322 321 318 324 325 317 318 323 320 316 314 314 315 315 320 325 326 329 329
300 300 300 301 300 300 302 301 302 305 307 309 311 313 317 315 313 317 319 314 314 316 315 315 316 314 313 314 315 314 313 314 314 313 313 313 314 313 311 315 318 317 320 318 317 317 318 319 316 313 313 312 313 316 312 312 316 315 318 321 321 321 319 318 319 319 322 323 319 319 319 319 326 323 316 320 323 321 320 317 317 317 316 320 323 326 328 328
300 300 300 301 301 300 302 302 301 303 304 306 311 314 314 312 315 318 317 316 316 315 314 314 313 313 315 316 316 314 313 315 315 313 313 313 313 315 313 312 313 318 321 317 314 315 317 319 318 316 313 311 313 314 315 318 316 313 316 317 318 324 323 319 320 322 321 322 320 317 315 321 325 318 315 319 320 321 322 321 322 322 321 323 324 326 326 326
300 301 301 301 301 302 302 301 302 302 301 306 314 316 312 310 314 318 320 322 318 314 312 311 312 314 317 320 318 314 313 316 314 313 314 314 315 319 318 313 312 317 320 318 316 315 313 317 321 316 310 310 312 311 312 316 314 310 311 314 316 322 326 320 317 322 323 322 320 316 316 322 323 317 315 318 321 322 322 321 322 323 323 325 325 325 325 325
300 302 302 303 306 307 304 301 302 301 302 309 316 315 314 313 313 316 319 318 313 312 313 312 313 315 318 324 323 316 313 314 314 314 314 314 315 317 316 314 313 314 316 320 322 317 313 317 320 314 310 311 310 310 310 312 314 312 310 315 315 315 324 324 315 316 322 322 318 316 318 322 322 320 319 322 326 324 322 322 321 322 325 325 324 324 323 324
302 304 304 307 310 311 308 304 301 301 304 312 316 317 317 314 311 315 317 312 311 313 313 312 315 315 317 323 325 321 316 314 315 316 316 315 315 315 315 314 311 311 313 317 320 319 318 321 319 313 312 311 307 308 310 308 311 316 313 314 314 311 318 325 322 320 319 320 319 316 317 322 325 324 320 321 326 325 324 323 321 321 324 323 323 322 320 320
305 306 305 308 311 311 311 306 301 301 306 313 317 319 316 311 309 313 314 311 312 312 311 313 314 314 315 320 323 321 316 317 318 316 317 316 315 315 316 314 311 309 310 311 314 315 317 320 319 314 312 312 309 310 313 310 308 313 314 311 313 317 318 318 321 322 318 317 319 315 315 320 324 324 320 320 327 327 324 323 323 322 321 321 322 320 318 318
307 306 306 310 310 309 310 305 300 303 310 315 317 317 314 312 312 312 313 313 312 311 313 314 312 312 314 318 321 318 316 322 321 314 315 316 315 314 313 313 312 309 308 310 312 316 316 317 318 315 311 311 314 315 318 316 309 309 312 310 314 324 323 317 318 321 320 319 319 316 316 321 326 328 325 322 326 329 326 325 325 322 320 321 321 320 318 319
308 306 307 310 309 306 306 303 302 307 313 315 315 316 314 314 314 312 312 313 311 311 314 314 311 312 314 315 317 316 317 324 321 314 316 316 315 314 311 312 313 310 309 310 313 319 316 312 316 320 315 312 314 315 316 318 314 313 315 313 314 317 315 315 315 315 319 324 323 319 318 324 328 327 326 324 324 326 326 326 324 320 320 321 321 321 320 320
309 308 308 310 309 305 304 306 308 312 315 314 313 315 314 314 315 314 312 313 312 312 313 313 312 313 314 313 314 316 317 320 319 318 317 315 316 315 312 312 311 311 313 313 316 320 315 314 322 325 319 314 312 309 310 312 314 318 318 314 317 319 316 317 314 311 317 322 321 322 323 326 323 318 320 325 324 321 321 322 321 320 321 322 322 323 323 323
310 310 309 310 309 306 308 312 312 312 316 316 314 315 314 314 315 314 312 311 312 312 311 311 312 312 312 312 311 313 316 318 318 318 318 316 317 316 312 311 310 312 316 315 313 314 317 323 325 318 313 312 310 309 309 308 310 314 314 313 318 320 320 326 324 318 316 314 313 319 324 323 316 313 316 319 316 315 317 320 320 320 322 322 322 324 323 324
309 308 308 310 310 309 311 315 312 313 317 315 312 312 313 314 314 313 312 311 311 310 310 310 310 310 310 310 310 311 313 315 315 316 318 319 317 314 311 312 312 313 316 316 312 312 317 323 319 314 316 317 315 315 312 309 311 314 312 312 314 313 317 327 329 324 321 316 314 317 319 320 317 314 314 313 313 315 318 321 321 320 321 322 323 324 323 324
308 307 306 308 311 311 311 312 312 316 319 315 314 314 312 312 313 312 312 310 308 309 310 311 311 309 309 310 311 311 310 312 313 314 317 318 315 313 313 312 313 316 317 315 313 313 313 316 317 316 316 315 315 315 315 313 314 313 311 311 311 312 316 318 318 322 323 317 317 319 319 321 317 313 312 313 316 318 317 319 321 320 321 323 323 324 324 324
307 308 306 307 309 309 309 308 309 313 316 315 316 315 312 312 311 310 310 309 307 307 309 311 309 308 310 312 313 311 309 311 313 314 316 317 314 311 312 313 313 317 318 314 312 316 315 316 321 321 315 313 315 317 320 317 312 311 312 312 312 313 314 312 314 324 321 311 315 324 324 321 317 313 313 313 316 318 317 317 320 320 321 323 323 324 324 324
307 309 308 307 306 306 305 305 306 309 311 311 311 310 310 312 311 308 308 308 307 305 306 306 306 308 313 315 314 312 311 311 312 313 313 316 316 310 309 314 315 315 317 311 309 318 321 314 316 319 314 313 316 316 316 315 313 312 311 313 315 315 317 319 319 322 320 313 313 318 320 320 316 312 311 310 312 317 315 313 316 318 318 320 321 322 323 323
306 306 306 306 307 306 305 305 304 306 307 309 309 307 308 309 309 309 308 308 307 306 306 304 303 308 312 313 315 315 312 311 312 312 310 311 314 311 307 309 311 312 316 311 307 320 327 316 312 315 312 309 311 310 308 310 312 312 312 313 316 319 322 323 316 312 315 318 316 313 316 320 314 308 309 309 310 313 310 307 310 314 316 318 319 321 321 322
305 304 303 304 306 306 306 306 305 305 305 307 308 306 306 307 307 308 308 308 306 306 309 307 304 304 305 309 316 315 311 313 312 310 310 309 311 313 310 308 307 307 312 313 310 320 327 317 311 314 312 308 308 307 308 310 311 311 313 314 317 321 321 319 315 311 313 319 319 314 314 315 309 305 308 307 306 308 306 306 309 312 314 316 317 318 319 319
303 303 302 303 304 304 304 304 305 304 305 306 306 304 304 306 307 305 305 310 310 306 308 308 304 302 302 306 314 312 308 312 311 307 308 309 310 312 312 312 309 305 309 315 313 314 320 316 311 312 312 308 308 308 309 312 312 312 312 310 312 316 315 313 312 310 310 313 312 311 312 310 305 305 306 305 304 305 305 307 310 310 311 313 314 314 315 315
302 302 302 302 301 301 302 303 304 305 306 305 305 304 303 304 306 304 302 306 309 307 307 307 304 303 302 304 308 307 305 307 308 305 306 309 311 310 308 309 307 304 310 316 313 311 315 315 313 316 314 309 310 312 313 314 315 314 313 311 311 313 312 312 311 309 311 310 306 309 312 308 303 303 303 303 303 304 305 306 307 308 310 311 311 311 311 311
302 302 302 302 302 300 301 302 304 306 306 305 305 305 303 302 304 305 303 301 302 303 304 305 304 304 303 304 305 304 303 304 305 305 304 306 307 307 306 306 305 305 310 313 312 315 317 313 312 316 315 308 308 312 315 315 313 312 313 313 313 314 314 312 308 307 309 309 308 312 314 308 304 303 302 301 301 301 302 303 304 307 308 309 309 309 309 309
302 302 301 303 303 300 299 301 304 306 305 304 304 304 303 302 302 305 306 302 300 301 301 302 304 305 305 305 304 302 301 302 303 303 302 303 303 303 305 305 303 304 307 309 311 315 317 312 310 313 313 308 307 309 310 310 310 312 311 308 308 309 308 307 305 303 303 306 311 314 311 306 304 303 301 301 300 299 300 300 302 304 305 306 307 307 307 308
Wind_Speed
11 11 10 11 11 10 9 8 8 8 9 10 11 12 12 11 10 10 10 10 10 10 9 10 10 9 9 10 10 10 10 10 11 12 12 6 4 8 8 8 11 13 12 11 10 8 9 9 10 10 11 11 7 7 7 5 5 3 3 2 2 3 3 5 6 4 3 3 5 8 11 4 3 6 11 11 12 13 11 8 7 3 4 15 10 18 31 25
11 11 10 10 11 10 9 8 8 8 9 10 11 12 12 12 11 10 9 10 10 10 10 10 10 9 9 10 10 10 11 10 10 9 4 3 1 4 6 10 12 13 12 12 10 7 8 10 10 11 11 10 6 6 6 6 7 3 3 2 3 4 4 5 6 5 3 3 7 11 10 5 4 4 10 5 3 6 9 8 8 10 11 14 16 25 30 26
11 11 11 11 10 10 9 8 8 8 9 10 11 12 12 12 11 10 10 10 9 10 10 10 10 10 10 10 10 10 10 11 9 3 2 5 4 1 5 10 11 13 13 12 9 5 6 9 10 11 11 8 5 5 4 4 6 3 2 2 5 5 4 6 8 9 8 7 8 10 9 10 10 1 7 7 4 2 3 5 7 11 16 19 25 31 29 27
11 11 12 11 10 9 9 8 8 9 9 9 10 11 12 12 11 11 10 10 9 10 10 10 10 9 10 9 9 9 10 10 4 4 3 3 5 3 3 8 10 13 14 12 9 6 6 9 10 11 10 5 4 3 2 4 4 1 3 4 4 4 2 8 12 14 14 9 8 8 8 10 8 4 7 12 8 1 6 10 7 12 23 26 31 33 29 28
12 12 12 12 11 10 9 9 8 8 9 9 10 11 12 12 12 12 11 9 9 10 10 10 9 9 9 8 9 8 7 5 4 5 0 1 3 3 1 6 10 12 14 12 10 8 7 10 9 9 7 3 3 2 1 5 4 1 3 6 5 5 2 9 10 10 11 8 8 7 6 7 5 3 7 11 5 3 8 12 9 15 26 28 33 34 30 30
11 12 12 12 11 11 10 10 9 8 9 10 10 10 11 12 12 12 11 10 9 10 10 10 9 8 8 7 8 7 4 0 4 1 2 1 1 2 1 4 10 12 13 12 11 9 9 10 9 7 5 2 3 2 3 5 5 2 4 4 7 6 4 10 9 7 9 8 9 6 5 7 3 3 3 4 4 5 6 11 12 17 25 28 33 34 32 31
11 11 12 12 12 12 11 11 10 9 9 9 9 10 11 12 12 12 12 11 11 10 10 10 9 8 7 7 7 6 7 5 2 1 2 2 2 3 3 5 10 13 13 13 12 11 11 11 8 7 5 2 3 3 3 4 6 5 3 4 7 7 8 14 13 12 13 12 15 12 9 10 7 2 2 0 4 6 5 10 15 19 26 30 34 34 33 31
12 11 11 11 11 12 12 12 11 10 10 9 9 9 10 11 11 12 12 12 12 11 11 10 9 8 7 7 6 7 9 6 1 0 1 1 4 5 6 7 11 14 13 13 13 12 12 11 9 7 4 1 4 4 2 1 2 4 5 4 5 6 10 15 15 17 17 17 18 13 9 14 12 4 3 1 0 3 7 13 18 23 29 33 35 33 33 30
13 12 11 11 11 11 12 12 12 11 11 10 9 9 10 10 11 12 12 11 12 12 12 11 10 9 7 7 6 6 5 3 1 1 1 2 4 6 8 8 11 14 13 13 13 12 12 11 9 6 2 2 3 3 3 2 2 6 8 6 4 8 12 14 14 16 16 15 12 5 9 16 9 5 2 0 5 8 13 16 19 26 32 34 34 33 33 30
16 13 11 11 11 11 11 11 12 12 11 11 10 10 10 10 11 11 11 11 12 12 12 11 11 9 8 6 3 2 2 3 1 1 1 3 5 6 10 9 10 12 13 14 14 14 12 10 8 5 1 1 2 2 3 3 2 6 8 6 8 11 13 10 11 14 10 9 9 8 7 8 5 7 2 3 10 13 17 17 19 28 32 33 33 33 32 31
19 16 13 11 10 11 11 11 11 12 12 11 11 10 11 11 11 11 11 12 12 12 12 11 11 10 9 7 4 3 2 3 2 1 1 4 5 4 7 9 9 10 13 14 15 16 12 9 7 3 1 1 1 2 3 4 4 4 3 4 8 8 10 8 9 13 7 5 11 13 4 3 5 4 4 11 15 16 19 17 20 28 30 32 32 32 32 31
19 19 16 13 11 10 11 11 11 11 12 12 11 11 11 12 11 12 12 12 12 13 12 12 11 10 10 11 11 6 2 3 4 3 3 5 5 3 4 6 7 7 11 15 17 16 12 9 5 1 1 2 2 1 2 3 3 4 0 2 7 7 7 7 5 7 5 3 9 12 2 3 2 3 6 16 19 18 19 19 21 26 28 30 31 32 32 31
18 19 18 15 12 11 11 11 11 11 11 12 12 12 12 13 12 13 13 12 13 13 13 12 11 12 12 11 10 5 6 7 7 6 4 5 5 4 6 6 6 5 9 13 15 13 11 9 5 3 4 3 2 1 2 5 3 3 1 1 4 7 6 5 1 2 6 3 7 11 2 5 6 7 10 21 23 21 19 19 22 25 27 29 32 33 32 31
18 18 18 17 14 12 11 11 11 11 11 11 12 13 13 13 14 14 14 14 14 13 13 12 12 12 11 10 7 4 9 10 9 6 4 5 4 4 7 8 7 7 9 11 10 9 9 8 6 6 7 7 5 3 3 5 2 1 1 2 2 1 4 7 2 4 5 5 8 12 3 6 7 7 14 23 25 25 21 19 21 25 28 30 32 33 32 31
17 17 17 18 17 14 12 11 11 10 10 11 11 12 13 14 15 15 15 15 14 14 13 12 12 11 13 14 9 5 8 11 9 4 4 5 3 5 7 9 9 9 10 10 9 7 7 5 5 5 6 5 4 2 3 4 3 2 1 2 3 2 4 9 4 6 6 4 6 9 3 5 7 7 19 24 24 24 21 20 21 24 28 31 32 32 31 30
18 17 17 17 17 16 13 12 11 10 10 10 10 11 12 13 14 15 16 16 15 14 12 10 10 9 10 9 4 3 6 9 8 4 5 5 4 6 8 9 9 10 9 8 7 6 5 4 5 4 3 1 2 3 4 4 4 4 2 2 2 1 2 6 4 5 7 2 2 6 3 3 5 6 19 23 23 20 18 19 20 23 28 31 30 29 30 30
18 17 17 17 16 16 15 13 11 10 9 9 9 9 10 11 13 14 16 16 15 12 10 9 9 10 9 5 1 1 2 4 6 6 5 5 7 6 7 7 7 7 6 4 5 6 5 4 3 3 1 2 3 4 3 3 3 4 2 0 3 2 1 3 5 5 2 2 3 3 4 5 5 5 17 20 21 18 15 17 19 22 26 27 27 28 30 31
18 18 17 17 16 16 15 14 12 10 9 9 9 9 10 11 12 14 15 14 9 5 6 8 5 5 7 6 4 2 5 6 4 5 6 7 9 7 5 4 4 3 3 2 4 6 5 3 1 1 3 4 3 5 3 3 3 2 1 1 2 3 2 3 5 4 3 1 4 3 4 7 6 4 15 18 20 17 14 15 17 20 21 22 26 28 28 30
19 18 17 17 17 16 15 15 13 10 9 9 9 10 10 10 11 11 10 7 5 2 4 6 5 3 7 10 9 6 8 9 5 5 8 9 10 10 7 4 3 3 2 2 3 4 5 2 2 2 1 2 2 5 6 7 6 5 4 3 2 3 4 5 6 5 2 2 5 6 6 6 3 5 11 16 19 17 14 14 16 18 19 21 25 26 27 30
19 19 18 17 17 16 16 15 14 11 9 8 9 10 8 7 6 5 7 10 13 12 14 15 15 16 18 17 13 11 11 9 6 5 8 10 11 11 8 5 2 1 2 3 2 1 3 3 1 4 5 6 7 6 6 5 5 4 3 2 3 3 5 6 6 6 2 5 4 6 6 5 6 7 9 14 15 13 14 13 14 17 20 23 24 25 27 30
20 19 18 17 17 17 16 15 14 11 9 8 9 8 5 5 4 5 9 15 19 19 20 20 19 22 22 19 17 15 12 7 4 6 8 11 12 9 7 5 3 1 2 2 2 2 4 3 5 8 8 8 7 5 5 4 4 3 2 1 3 3 5 7 4 5 2 4 2 2 6 2 5 7 7 12 12 10 15 15 15 20 22 23 24 25 27 29
20 20 19 18 17 16 16 16 14 12 10 9 8 7 5 5 5 8 9 11 19 22 19 18 20 24 24 20 21 19 11 6 5 6 8 12 13 9 6 4 4 2 2 2 2 4 3 2 9 9 6 5 4 5 5 3 3 3 2 2 2 3 4 7 3 4 3 3 1 2 6 1 3 4 4 8 8 9 14 15 16 21 24 24 25 26 27 28
21 20 19 19 17 16 16 16 15 14 11 9 8 5 5 6 8 11 9 8 17 21 17 17 20 23 23 20 19 16 10 6 6 8 10 13 14 11 8 5 4 3 2 3 5 1 0 5 8 5 7 6 3 3 7 4 3 3 3 3 3 4 1 3 4 5 5 2 3 5 6 3 4 0 2 4 4 5 10 13 15 21 23 23 26 27 27 29
21 20 20 19 17 16 16 16 15 13 10 8 6 4 5 8 9 10 8 6 9 12 12 12 13 18 21 15 11 13 13 9 7 8 12 16 14 10 7 5 5 3 2 5 7 5 5 6 3 7 7 7 4 3 6 5 1 2 4 5 4 4 4 5 4 5 5 4 4 5 5 4 3 1 3 3 2 4 9 14 16 20 21 19 21 24 26 29
21 21 20 19 18 16 15 16 12 9 8 6 4 4 6 8 9 10 5 2 5 6 6 6 7 10 13 9 8 11 11 10 11 10 13 18 16 9 5 6 5 3 5 5 6 4 7 7 6 6 4 6 6 4 5 7 2 4 4 8 8 5 5 4 3 5 4 4 3 4 5 2 5 1 5 3 1 2 6 11 13 17 19 18 19 22 26 28
21 21 20 19 18 16 14 12 9 8 9 6 3 5 6 7 8 8 3 2 3 5 2 2 4 4 7 10 12 10 4 6 13 13 13 17 19 12 3 4 3 2 5 5 4 2 4 3 5 6 5 5 4 4 5 7 5 2 5 8 8 5 3 0 1 3 2 0 2 3 5 1 5 3 3 3 1 1 3 6 9 15 18 20 20 21 24 27
21 21 21 20 19 17 15 11 10 12 9 4 4 6 6 6 6 6 3 4 3 3 0 2 2 3 5 9 16 12 2 4 9 14 17 16 18 16 6 2 2 2 4 4 1 3 3 2 3 4 5 5 4 4 5 8 8 3 5 6 7 6 4 3 4 3 1 2 2 5 5 4 1 3 4 2 2 2 3 5 7 13 18 21 21 21 24 27
20 21 21 20 18 17 16 14 12 11 6 5 6 6 5 5 5 3 3 3 2 1 1 3 2 3 3 8 19 14 1 4 6 9 18 17 16 13 6 6 6 5 4 5 3 5 3 4 2 4 4 2 4 5 7 10 6 5 5 7 6 6 5 4 6 3 1 1 1 6 4 4 2 5 5 4 2 4 7 8 8 11 18 22 23 22 24 26
20 20 20 20 18 17 17 16 13 7 3 5 5 5 5 3 2 3 4 1 3 1 1 2 3 3 4 8 16 13 2 2 2 5 14 17 17 10 4 7 7 5 2 4 5 6 2 5 5 5 4 4 6 5 9 10 4 4 6 6 5 5 5 4 5 3 3 3 3 6 4 3 2 5 3 4 1 4 7 6 7 11 17 22 23 24 24 25
19 19 20 20 19 17 17 15 12 7 5 5 5 4 3 3 2 4 1 2 3 1 0 2 2 2 5 6 6 10 4 1 2 7 9 11 15 8 3 5 5 5 0 3 2 6 4 2 3 3 3 5 4 2 5 6 3 5 6 6 6 6 5 4 4 4 4 2 5 6 2 3 1 5 2 0 1 5 6 6 6 10 16 21 24 24 23 24
19 18 19 20 19 18 17 14 8 4 7 5 5 5 3 2 3 4 3 3 2 2 2 1 1 1 4 4 3 4 3 2 2 6 5 3 7 4 3 3 2 4 3 5 2 4 6 3 2 3 4 4 5 4 2 2 3 5 5 5 4 4 5 4 4 3 4 2 5 5 3 3 3 3 3 4 7 6 5 7 6 7 13 21 24 25 24 23
20 19 18 19 19 19 17 14 7 5 8 4 5 6 4 2 1 2 4 3 2 1 1 1 2 2 1 1 2 3 1 2 2 4 4 3 4 4 3 4 3 3 3 3 2 4 4 3 4 4 3 5 5 4 3 5 5 5 5 5 4 2 3 2 3 1 1 4 3 3 3 1 4 4 4 6 9 6 6 8 9 8 11 16 20 22 21 19
20 20 19 18 20 20 16 12 10 9 8 4 3 3 5 3 3 5 4 2 1 1 1 1 3 3 1 1 2 4 2 3 5 3 3 3 4 4 2 2 6 4 1 3 1 2 3 5 5 3 3 4 6 5 2 1 1 4 5 5 4 3 3 1 2 1 2 3 2 4 3 1 3 3 3 5 8 7 6 6 5 6 8 13 16 18 18 17
21 20 20 18 18 18 14 11 11 11 11 8 3 3 5 3 4 4 3 4 3 3 2 1 4 4 1 0 2 3 2 3 4 4 2 3 3 3 2 1 3 5 3 3 2 2 2 3 3 3 1 1 4 5 5 5 3 3 4 6 5 4 4 3 3 2 2 2 2 4 1 2 2 2 3 5 7 6 5 6 8 8 11 15 16 16 15 14
22 20 19 16 13 12 11 11 12 12 13 10 4 4 4 5 4 2 3 4 2 2 4 3 2 3 3 3 3 1 3 2 1 4 2 3 4 4 3 4 4 4 4 3 2 2 3 4 6 4 1 3 3 3 5 6 3 1 3 5 3 5 5 3 3 4 4 2 1 2 1 2 3 3 5 5 6 7 7 10 15 17 18 20 20 18 15 12
23 20 14 9 6 6 8 12 14 15 17 12 5 1 5 4 3 3 2 1 0 1 3 5 3 2 3 3 3 3 2 1 1 3 1 3 4 4 3 4 5 6 6 5 3 1 3 4 6 4 2 2 3 3 4 4 2 1 2 3 4 4 7 6 2 1 3 4 1 1 1 2 2 2 5 5 5 5 6 7 11 17 21 24 25 24 20 16
23 18 9 5 8 8 8 12 15 19 20 12 4 4 5 3 5 5 1 1 0 1 4 2 1 0 2 1 2 2 1 1 1 2 1 2 2 3 3 2 3 8 8 5 3 3 4 2 6 1 2 2 1 4 4 3 4 4 3 5 3 2 5 5 3 3 4 3 2 2 1 2 1 1 4 4 2 2 4 4 4 10 18 23 24 24 21 17
22 15 6 9 14 11 8 12 18 23 19 9 3 5 3 3 5 4 0 2 1 2 4 2 3 1 1 1 3 3 1 1 3 2 2 2 1 2 1 1 2 4 6 7 3 1 4 0 7 2 2 4 5 6 4 5 4 4 4 4 4 3 2 2 3 2 2 2 2 3 2 2 2 2 3 3 4 4 1 0 2 5 11 17 20 21 18 14
18 9 7 17 18 8 8 14 23 24 14 5 5 4 2 4 5 4 3 2 0 2 1 3 2 1 1 2 3 2 2 3 1 2 0 1 1 1 0 1 2 1 2 9 6 1 3 3 4 3 1 2 5 4 2 2 5 4 3 3 2 2 4 2 3 3 4 4 2 1 2 2 5 4 5 6 7 6 5 3 1 3 6 11 15 19 18 14
14 4 7 20 16 2 12 19 22 18 8 3 5 3 2 3 4 6 5 2 1 1 1 3 2 1 3 2 2 2 0 3 3 1 1 1 1 1 2 1 2 1 1 6 4 1 3 3 3 4 3 2 1 0 3 4 2 3 2 1 1 2 3 2 2 2 4 5 3 2 1 4 5 3 5 6 7 7 5 3 1 3 6 7 11 17 18 15
12 3 7 21 11 9 17 16 11 6 3 2 2 2 2 2 1 4 5 4 3 4 4 4 3 3 3 1 2 2 0 1 3 3 2 2 2 1 3 2 2 1 2 5 3 1 2 3 3 2 4 2 1 3 3 4 5 5 3 3 3 3 4 4 2 1 2 4 4 5 2 5 5 2 3 4 5 6 5 5 3 5 9 9 11 15 16 16
11 3 9 19 3 13 12 6 1 1 3 2 1 2 2 2 1 2 5 4 4 5 4 3 4 5 4 3 4 3 2 1 2 3 3 3 3 3 1 2 2 0 4 4 1 2 3 4 3 1 1 1 4 4 3 1 4 6 4 2 4 3 4 5 4 3 2 2 2 4 2 4 5 4 5 5 4 5 9 10 8 8 10 12 14 15 15 15
10 6 12 14 5 10 5 1 2 3 1 1 1 3 3 2 2 1 2 1 1 2 1 1 3 3 3 2 1 2 1 2 2 2 2 2 2 3 1 3 5 3 4 2 1 1 1 3 4 1 3 4 5 5 5 4 6 6 4 3 3 2 2 5 5 3 4 3 2 3 1 4 5 5 5 4 2 5 9 11 11 10 10 11 14 15 13 13
7 9 17 14 6 5 6 2 1 3 3 4 3 2 3 3 3 2 2 1 2 0 1 2 1 0 1 0 3 1 0 1 1 0 1 1 1 1 2 8 7 3 3 1 2 2 1 1 4 3 2 3 3 4 5 5 4 4 1 2 2 4 4 3 2 3 3 4 4 5 3 5 4 5 7 8 7 7 7 9 11 11 12 13 13 13 12 11
5 5 14 18 12 10 9 2 2 2 2 4 4 4 4 2 2 2 3 3 3 2 1 2 2 1 2 3 3 2 3 2 1 2 2 2 3 3 5 10 8 4 4 4 1 3 3 2 3 5 4 4 3 2 3 1 2 1 1 3 4 4 4 2 2 4 2 3 4 5 4 4 4 6 9 10 8 7 8 8 9 9 11 11 11 11 10 8
5 3 6 12 17 19 14 9 6 1 1 2 2 4 4 2 4 6 7 4 3 3 3 2 3 2 3 5 4 3 6 4 2 3 3 3 2 5 7 8 10 7 7 9 7 4 5 3 2 5 4 5 6 5 4 3 3 1 1 3 4 3 2 3 4 2 4 4 2 2 4 3 3 8 9 9 8 6 6 8 8 8 7 7 7 8 8 7
5 3 3 4 8 11 11 14 14 6 3 4 2 3 5 3 3 5 6 4 4 4 4 4 6 4 2 3 3 3 5 5 5 4 3 4 3 4 8 8 10 6 2 5 7 5 5 3 3 5 5 1 2 2 2 4 5 2 1 3 4 4 5 6 4 1 3 6 1 5 1 4 2 7 7 7 7 5 6 10 11 9 7 5 5 6 6 7
5 3 4 3 2 4 5 9 12 10 10 8 3 3 7 6 4 4 4 2 5 6 3 4 9 7 3 1 4 3 5 4 6 5 3 4 3 4 7 6 8 10 5 3 5 4 5 2 1 3 5 6 5 5 5 6 4 4 4 4 5 6 7 6 3 2 2 5 4 2 5 5 3 5 5 6 5 5 7 11 12 12 10 8 6 6 5 5
6 5 7 8 5 4 4 5 8 10 12 9 5 5 8 8 7 5 5 2 4 8 5 4 6 8 6 4 5 3 4 3 4 4 2 3 4 3 4 3 5 11 8 3 3 3 4 2 1 4 5 6 7 6 7 8 6 5 7 6 5 8 9 7 3 2 4 4 4 7 11 6 3 4 5 5 6 10 15 18 17 16 14 12 11 9 7 5
7 5 6 7 8 10 10 7 4 5 8 8 6 6 8 9 7 5 6 7 4 6 6 5 3 6 7 8 7 5 1 2 3 2 1 2 3 3 3 1 3 8 7 3 2 3 4 3 3 5 5 4 6 5 6 7 5 4 6 6 5 8 8 7 4 4 5 5 4 8 11 6 3 4 5 7 11 18 21 22 21 20 18 17 17 15 13 11
9 7 5 4 5 9 9 6 3 3 4 6 5 6 8 9 8 4 6 11 9 5 5 3 2 4 6 9 9 4 1 2 4 3 3 1 1 2 2 1 2 5 6 4 2 3 3 3 2 5 5 2 3 1 1 4 6 4 3 5 6 5 5 4 2 2 2 4 4 6 7 3 1 3 6 10 17 21 20 19 21 22 23 24 23 21 19 16
11 8 6 3 3 7 7 3 3 3 2 3 3 4 5 8 11 7 4 10 15 13 9 5 1 2 5 7 7 7 10 8 8 9 6 3 4 5 5 6 5 3 3 3 2 2 2 5 4 4 4 3 1 2 4 5 6 1 2 3 3 3 5 5 4 4 2 3 5 4 3 3 2 1 5 9 14 16 17 18 20 21 24 26 25 23 22 19
Wind_Direction
309 314 319 325 330 328 330 336 343 348 352 353 353 350 344 335 327 320 318 326 333 333 325 314 311 312 312 312 313 313 311 303 294 290 292 300 253 246 239 210 199 194 193 189 187 192 193 196 195 191 183 173 176 183 183 191 173 139 97 121 215 191 180 182 189 189 181 276 283 329 360 29 23 83 107 108 108 103 110 90 100 114 157 174 166 161 163 161
305 307 310 316 322 326 328 332 338 344 349 352 353 351 347 341 334 326 321 325 329 330 325 316 315 313 313 315 317 321 316 308 300 292 303 14 296 254 228 210 200 190 189 186 184 186 188 191 189 181 171 166 170 173 178 192 182 153 106 154 220 194 203 207 201 209 214 279 295 314 339 345 327 152 152 127 89 104 97 77 93 105 129 161 157 160 163 162
303 302 303 305 313 322 325 324 329 336 341 346 348 348 347 346 342 336 329 328 325 325 323 318 316 312 313 315 321 326 321 312 302 285 89 57 19 307 207 206 200 187 186 190 188 186 184 180 177 170 163 157 152 162 164 181 191 188 124 194 240 209 221 250 247 253 262 290 306 308 327 324 320 306 169 152 131 134 135 136 126 129 141 152 158 161 161 163
305 301 299 300 305 313 317 317 318 325 332 336 343 346 347 349 351 349 341 333 324 320 318 316 314 312 313 316 327 328 327 325 284 161 113 60 40 18 191 194 195 187 188 196 194 184 172 167 164 161 159 144 124 152 169 179 191 187 158 200 226 172 185 256 254 268 280 292 289 288 319 322 327 8 148 140 123 260 220 191 175 168 159 154 160 162 163 169
310 304 300 297 297 301 306 308 308 314 321 326 336 343 347 349 353 356 352 341 327 319 315 314 312 312 315 317 327 325 338 359 150 147 105 66 46 17 79 184 191 191 194 198 196 184 169 164 160 154 149 116 107 115 203 191 176 175 220 224 216 156 180 268 258 274 289 288 281 284 319 310 326 20 147 146 144 226 220 206 197 183 169 162 165 165 170 175
315 309 303 297 293 293 296 298 300 304 310 319 331 337 343 346 350 354 355 351 338 327 318 315 315 316 318 318 323 320 327 36 163 175 273 210 360 333 5 188 190 198 202 201 198 184 171 166 157 147 126 83 124 148 209 200 182 221 269 257 247 212 219 273 271 278 285 281 275 267 294 294 324 23 161 175 246 252 240 212 193 179 172 169 169 171 177 176
323 314 309 304 296 290 290 292 294 297 302 310 322 330 337 341 348 350 351 354 348 339 328 320 322 319 317 317 318 309 289 266 218 291 250 193 259 249 238 209 198 204 207 207 200 181 172 169 158 133 103 89 163 194 220 201 183 200 269 291 270 241 235 270 280 283 281 274 272 273 286 285 284 295 205 282 280 259 243 202 184 171 168 170 171 175 178 175
334 322 316 312 304 295 289 289 292 293 294 301 312 321 330 335 343 347 347 350 349 346 338 330 329 323 319 317 316 309 289 270 220 222 237 212 250 248 236 217 204 207 209 210 200 179 170 169 162 137 110 167 170 196 206 158 190 196 233 262 271 254 258 278 288 287 282 276 275 277 270 270 272 235 180 29 359 210 187 176 167 162 166 170 172 177 178 177
346 334 325 317 312 305 294 289 288 288 289 293 302 311 320 327 335 342 344 345 345 345 344 339 333 325 321 314 316 318 281 228 164 211 234 269 267 256 240 227 212 207 205 204 192 175 172 170 169 157 156 192 160 213 181 139 245 206 216 243 270 274 280 288 290 286 284 278 271 255 256 269 259 162 143 335 160 166 162 159 158 160 166 170 174 178 178 181
356 344 333 324 318 313 305 295 287 286 288 288 295 303 310 316 325 335 339 343 342 339 342 342 338 329 318 312 321 327 230 184 161 198 231 292 285 257 238 233 224 210 199 196 183 170 170 171 170 158 139 132 151 232 177 159 222 212 216 245 257 271 287 287 280 279 280 278 249 201 242 275 186 163 244 191 169 167 156 151 158 163 167 172 176 178 180 186
2 354 342 331 324 320 315 307 295 286 285 286 290 296 301 306 317 327 332 338 338 335 334 334 335 325 313 301 259 204 198 186 185 229 283 293 294 262 240 235 228 214 197 189 177 168 161 159 159 142 124 44 339 231 206 219 246 242 228 270 275 292 299 268 255 267 261 266 237 203 202 37 131 191 215 176 171 171 161 152 160 165 168 173 177 180 185 191
2 359 352 340 330 325 321 316 307 293 285 285 286 290 294 297 307 318 326 330 332 331 325 325 328 322 315 292 262 236 220 206 209 260 273 283 287 225 219 234 227 215 198 183 172 165 155 161 168 107 9 346 329 249 262 284 269 263 204 278 297 355 329 258 240 253 205 226 230 189 164 12 197 243 176 167 167 166 160 153 161 169 171 175 178 183 188 193
358 359 357 349 336 328 326 322 316 305 292 285 283 286 288 293 301 310 319 322 323 324 318 317 316 317 314 289 273 246 218 220 231 258 262 273 273 206 181 198 206 203 193 180 171 168 167 186 211 300 311 283 265 261 310 316 297 274 58 117 313 6 331 269 227 182 171 236 202 160 214 276 255 262 172 165 166 160 157 157 164 171 175 178 182 187 191 195
353 355 356 354 345 333 328 325 322 314 303 291 284 283 285 291 297 303 312 313 315 315 312 310 308 313 305 282 289 259 222 224 238 254 251 257 253 197 171 168 173 173 177 175 174 185 192 210 245 284 287 259 253 289 324 336 360 313 19 46 358 16 285 290 316 136 159 254 187 155 236 253 264 263 176 171 171 162 160 165 169 174 179 182 185 189 193 196
346 348 351 353 351 341 330 328 327 321 313 302 291 287 287 289 293 299 304 304 308 307 305 305 303 312 304 290 288 258 229 229 240 247 229 237 212 169 156 149 150 153 161 169 180 198 204 226 255 271 280 258 256 332 360 349 8 32 77 316 342 146 266 302 298 173 182 265 179 160 238 253 264 234 178 175 175 166 163 168 175 179 181 184 188 192 194 196
341 343 345 348 351 347 337 330 329 326 319 311 303 296 290 288 290 293 295 299 303 300 299 297 297 312 309 298 291 243 247 247 251 241 213 207 175 150 136 134 136 144 158 171 189 206 218 251 266 270 282 221 122 85 48 9 349 2 98 219 279 172 278 316 317 218 201 209 170 167 168 233 273 212 178 177 176 171 164 169 179 182 183 186 189 193 195 197
337 338 339 342 346 348 344 334 327 327 324 318 312 305 298 293 291 291 292 296 296 292 291 283 292 304 283 264 287 301 356 305 267 239 211 185 179 159 131 139 135 147 177 202 231 236 237 245 245 254 336 63 80 88 66 8 314 321 26 117 246 214 261 307 311 290 182 149 220 173 153 225 280 182 172 177 179 176 170 175 184 185 185 188 190 194 196 197
333 334 335 337 338 343 345 339 331 327 328 324 318 315 311 306 304 298 293 294 292 291 288 267 274 313 274 245 254 279 15 352 295 231 209 186 185 178 158 161 141 159 190 211 232 221 217 228 144 121 23 19 40 88 125 218 204 201 159 47 293 284 277 256 277 297 62 81 222 169 182 246 289 173 171 178 181 180 177 181 187 187 185 187 193 197 198 199
330 331 332 332 333 336 338 341 337 328 328 325 323 326 322 322 319 307 299 286 251 239 286 255 223 260 278 271 267 278 312 319 310 241 208 186 184 188 186 192 198 189 144 130 198 179 170 155 73 104 360 288 197 145 178 202 165 150 168 167 200 263 277 252 255 260 139 141 212 190 198 228 221 173 175 178 181 179 179 181 182 183 184 189 196 200 202 202
327 327 328 329 330 331 331 335 336 331 322 316 325 331 330 341 341 315 304 281 265 273 282 271 257 257 268 277 275 282 300 303 293 236 201 185 183 187 192 204 209 132 106 140 184 167 128 124 167 201 207 218 215 185 170 165 129 115 126 162 210 221 272 266 265 281 178 144 223 197 174 206 192 181 177 171 172 170 173 179 177 176 183 192 197 203 207 205
325 324 325 326 326 328 327 327 331 331 316 309 323 330 337 5 356 315 309 293 285 285 280 276 270 262 265 271 271 280 299 307 262 208 197 195 186 183 197 193 116 62 269 162 141 11 80 121 228 220 207 204 202 174 143 129 104 84 127 207 269 219 251 261 255 303 291 137 280 175 139 215 209 184 174 164 166 174 179 180 177 176 183 194 198 204 209 209
324 322 322 322 323 325 323 321 325 325 314 305 314 329 349 2 339 315 309 293 294 293 282 276 266 260 262 260 261 270 283 288 248 210 201 197 191 190 184 154 128 178 286 88 85 357 33 243 246 226 185 157 147 135 131 137 112 83 124 156 277 242 274 287 272 316 336 118 279 120 117 334 264 199 190 178 177 185 187 187 183 182 186 195 201 205 208 209
322 321 320 318 319 321 320 318 318 318 309 296 307 337 346 334 330 319 297 272 293 296 284 268 254 253 255 252 253 251 239 242 246 222 205 194 193 194 172 139 142 150 68 122 152 125 65 255 249 198 148 139 151 132 115 106 104 117 139 141 254 258 300 295 283 324 348 75 132 124 102 20 335 360 253 225 182 165 184 192 194 194 196 199 203 207 208 208
321 321 319 316 316 316 318 315 315 318 305 293 308 326 320 323 334 327 291 253 289 294 282 268 252 250 248 244 242 225 213 221 229 210 204 196 184 185 187 158 127 142 194 176 156 163 220 237 178 128 144 159 168 156 129 130 246 256 185 170 218 245 208 224 285 335 352 27 76 89 66 9 354 157 232 252 136 136 172 183 195 204 206 208 209 210 210 210
321 320 318 317 313 312 315 313 312 318 309 307 307 284 306 322 333 333 314 278 293 286 285 264 242 245 232 216 205 202 201 221 227 206 200 203 189 173 191 173 142 189 206 158 133 178 246 238 172 142 164 173 166 194 180 163 195 303 236 203 203 204 211 242 335 18 33 19 11 57 68 338 321 269 220 244 107 123 167 178 193 203 209 214 214 211 210 212
320 318 318 317 312 310 312 310 307 310 314 316 281 276 306 317 329 336 344 26 316 274 290 208 224 223 196 193 185 171 159 226 227 213 201 208 201 185 163 163 162 202 183 149 132 197 251 230 161 149 153 157 168 231 222 162 127 316 247 205 188 165 153 195 49 73 92 214 316 61 109 197 320 314 249 267 204 171 183 191 200 203 209 216 216 213 211 212
319 317 316 315 314 311 308 304 297 303 312 304 270 279 291 294 319 329 348 23 329 271 195 179 208 171 188 195 170 152 98 205 201 209 204 203 200 193 191 195 173 192 171 129 113 229 198 155 93 110 117 124 157 238 229 148 122 234 231 159 148 153 156 151 105 98 180 213 330 15 93 119 342 276 288 334 143 210 237 216 214 208 211 217 219 218 214 214
317 315 313 311 312 311 306 299 293 299 295 262 269 275 268 279 311 327 62 39 303 284 133 195 180 158 189 184 173 168 143 151 153 206 206 199 194 188 201 217 181 182 178 125 179 256 193 174 198 128 103 127 192 215 193 151 139 241 206 134 136 143 138 119 94 84 26 110 305 330 31 99 246 275 319 23 133 240 246 222 220 213 211 216 219 221 220 218
316 312 309 307 307 305 302 294 291 294 254 240 263 260 247 254 324 44 83 26 274 316 47 170 143 167 159 155 187 204 218 121 103 181 189 191 196 187 193 215 173 150 185 123 182 251 242 200 207 144 129 218 219 209 178 162 171 206 145 100 72 73 77 77 88 98 41 65 225 290 355 102 252 287 329 38 117 243 254 238 226 216 213 216 218 220 222 221
314 309 305 303 301 300 296 289 286 273 231 233 248 241 226 215 56 58 88 262 264 283 64 157 171 182 143 128 206 236 243 272 82 134 157 177 193 190 138 177 147 124 282 17 176 246 283 247 206 164 190 204 175 150 167 160 138 130 105 64 45 32 34 49 53 85 70 2 249 267 289 131 204 285 262 131 232 240 263 278 246 216 212 215 217 219 221 221
313 306 301 298 296 295 289 286 292 243 204 212 231 215 170 146 74 89 206 256 280 294 13 23 310 61 137 150 220 250 252 284 94 129 144 156 177 176 106 145 115 75 6 346 313 295 332 342 255 252 235 167 110 74 64 57 73 100 80 72 74 4 9 31 358 45 92 261 260 271 274 148 155 253 245 267 279 262 250 259 252 222 210 209 212 216 217 219
313 302 296 292 289 286 280 281 286 204 183 187 221 206 158 112 76 174 235 310 338 281 357 293 303 2 207 200 208 219 193 227 218 142 153 148 155 177 174 179 166 67 352 281 285 336 327 260 272 309 261 171 119 71 35 15 31 79 83 89 97 19 12 30 315 360 148 237 257 301 307 180 200 223 223 262 282 281 262 258 262 259 231 208 203 208 210 212
314 303 296 288 282 281 278 277 266 218 196 203 215 176 101 97 218 221 240 292 268 279 341 239 301 308 226 128 218 214 165 208 219 180 152 131 152 204 235 182 156 126 157 214 206 343 308 301 317 330 274 197 145 126 143 299 72 127 132 127 123 100 85 198 268 311 244 239 277 316 314 261 267 265 231 262 286 297 307 302 280 257 219 190 185 190 193 195
318 309 301 291 283 281 276 266 249 224 214 211 182 105 102 150 229 227 230 248 256 310 345 293 308 317 299 205 251 186 153 242 201 154 141 104 140 222 264 246 166 125 116 144 157 182 193 309 278 206 245 208 160 159 164 156 143 168 155 129 142 153 141 188 215 177 200 235 308 310 302 170 215 289 290 292 314 337 20 70 92 107 133 143 149 157 161 167
322 317 309 300 292 283 270 246 230 218 207 191 132 91 153 203 238 217 219 240 273 317 317 325 354 356 339 308 298 132 141 254 141 122 140 142 167 205 196 211 199 132 119 157 215 174 154 243 259 256 258 154 169 181 137 115 98 218 132 108 150 180 142 133 173 168 165 137 25 276 237 203 215 286 315 337 356 12 51 91 99 102 113 115 112 113 114 122
327 325 319 320 324 297 254 226 213 204 192 170 122 155 199 213 211 188 207 208 85 335 334 347 41 65 323 315 328 355 62 93 112 101 148 183 189 201 196 216 195 161 148 160 204 170 135 253 283 322 347 164 180 182 141 135 166 168 128 162 212 172 118 110 132 41 87 121 183 257 254 303 345 334 329 360 16 15 29 72 103 110 113 108 101 99 98 99
333 334 336 353 340 309 248 214 199 191 182 160 141 207 210 219 197 193 231 50 83 53 64 21 334 181 262 293 294 293 18 7 25 89 209 228 214 203 222 271 182 185 187 166 196 201 145 256 292 353 70 337 36 113 89 75 123 130 174 193 183 100 93 104 109 20 50 137 247 335 299 276 40 48 308 343 13 13 7 25 100 115 116 114 110 108 105 100
337 339 351 348 330 304 242 207 190 182 173 155 184 215 210 217 197 184 48 29 360 46 80 162 248 254 197 224 263 244 149 306 329 18 180 221 249 191 203 296 169 205 207 170 183 250 124 230 293 272 159 317 6 80 68 7 53 119 171 155 114 120 129 91 119 128 112 160 261 339 333 237 194 211 252 240 217 212 230 309 106 112 122 128 129 128 126 121
341 346 3 350 333 292 210 188 180 174 163 152 201 212 210 223 237 249 286 333 354 100 92 216 234 316 234 194 235 253 132 165 291 353 168 162 203 196 21 198 174 306 210 163 167 272 106 132 274 278 192 331 6 64 151 313 16 45 76 68 49 128 152 153 140 145 144 155 198 320 354 263 227 208 190 204 227 224 207 208 176 98 123 142 143 139 140 143
351 6 6 352 342 237 161 164 168 166 159 174 193 202 227 226 268 270 257 268 204 154 230 219 187 271 262 242 223 240 142 164 150 114 248 208 134 216 299 250 159 346 71 136 134 65 84 126 221 288 338 40 40 324 191 183 129 70 60 59 24 69 121 141 91 93 127 139 168 160 214 265 253 210 185 201 227 230 209 193 174 79 105 133 138 136 143 152
5 41 1 351 350 135 136 147 161 159 144 151 175 209 255 229 287 281 253 245 234 237 234 205 190 219 222 271 254 217 209 198 156 145 195 223 136 169 279 245 176 190 89 80 70 101 126 144 178 294 5 58 255 287 257 203 165 141 137 164 152 122 123 124 110 294 102 121 165 158 185 262 270 274 248 230 228 230 200 152 119 104 115 125 129 132 141 149
20 65 354 348 6 139 127 143 197 36 130 139 196 210 232 228 233 274 262 254 230 229 233 211 223 230 206 215 237 205 161 186 197 172 176 195 181 173 240 294 296 65 101 99 157 186 145 112 101 55 18 212 264 299 327 355 109 108 102 124 135 119 113 127 171 217 104 94 155 122 125 255 270 293 285 277 252 207 173 151 133 123 129 131 132 136 139 143
28 42 7 360 150 140 73 11 323 357 199 276 283 218 233 218 198 240 259 291 233 223 272 232 220 225 220 217 195 169 162 163 184 198 186 184 192 188 195 349 347 27 81 102 207 185 129 95 81 16 314 313 303 325 352 16 63 73 52 52 89 81 99 139 171 173 132 148 154 94 123 254 291 324 337 351 55 124 141 148 140 131 131 131 131 135 138 142
33 42 30 34 150 161 32 50 293 329 290 321 357 319 281 236 220 249 220 39 358 360 355 277 247 345 304 48 89 86 265 146 125 342 164 138 334 232 74 42 30 36 67 106 195 166 148 91 93 98 24 350 334 340 343 351 36 74 58 6 43 70 76 110 132 80 110 183 156 125 189 245 291 342 8 22 45 72 90 126 138 132 127 130 134 138 144 150
24 42 34 42 71 71 51 67 236 266 301 337 360 352 321 279 338 34 127 89 30 61 84 281 287 338 360 43 56 20 32 85 107 18 40 14 340 336 34 60 67 64 57 57 113 136 114 73 102 129 149 173 187 227 251 262 17 53 91 35 45 81 90 132 120 83 133 194 138 135 195 242 307 350 8 11 18 34 50 87 116 120 123 134 144 148 153 158
32 34 6 27 52 58 50 31 19 12 291 357 22 3 351 302 344 37 79 71 31 61 69 344 327 358 38 46 51 15 16 32 60 66 37 349 315 329 0 63 96 98 83 62 48 87 101 52 64 113 137 176 188 225 233 148 88 46 109 56 45 55 69 91 97 117 178 164 131 212 186 153 341 347 359 357 4 19 26 48 72 86 102 127 148 151 154 156
52 35 336 342 29 40 35 23 21 18 358 24 62 354 352 314 315 18 47 51 36 44 62 34 16 26 24 32 78 43 356 6 35 48 14 332 281 309 355 51 78 56 75 69 41 69 97 37 13 69 57 58 189 280 323 86 87 60 40 33 33 39 52 77 93 174 146 126 191 270 173 109 357 342 352 344 354 16 17 29 50 66 78 101 133 145 153 160
56 42 19 24 7 3 20 8 2 14 23 27 45 8 4 7 17 16 3 25 39 23 35 42 20 16 343 319 117 65 354 14 31 9 342 350 332 330 1 39 41 10 3 77 48 81 109 60 342 63 39 18 21 21 41 69 73 49 30 6 23 49 56 75 88 330 74 135 196 219 89 80 357 337 342 340 357 32 44 49 65 78 84 95 110 121 136 153
56 58 31 44 55 17 13 353 349 16 27 21 22 14 7 13 25 15 349 358 19 9 35 81 12 3 11 35 104 82 10 52 52 358 338 355 343 355 12 360 355 2 16 64 46 68 110 114 108 92 55 17 12 27 54 62 56 40 22 4 40 69 67 70 65 16 65 108 145 113 90 66 345 313 333 358 42 67 67 66 69 74 81 93 99 98 101 107
46 49 20 41 49 18 13 16 11 32 27 18 19 6 2 11 12 13 24 36 20 347 21 75 35 6 29 45 70 91 81 118 103 18 350 13 360 23 43 356 318 346 5 45 23 29 96 152 169 96 72 1 346 6 36 53 63 52 16 358 34 70 65 53 33 26 65 87 106 99 88 65 14 6 19 45 66 68 63 60 60 64 75 87 88 86 87 88
42 42 26 48 40 3 3 10 19 65 34 14 13 358 358 3 358 3 39 38 45 28 357 6 1 1 29 43 52 63 319 219 203 252 261 207 316 330 333 302 323 345 355 16 10 7 70 126 139 90 104 243 295 332 44 69 76 72 22 355 8 52 77 72 38 12 89 139 136 100 95 110 342 23 49 61 64 63 56 53 56 62 70 78 79 79 81 82
36 42 37 72 57 7 1 359 8 52 55 348 345 351 349 353 1 19 48 21 26 32 19 3 360 23 36 38 26 346 323 304 276 285 291 256 269 284 291 303 312 326 328 345 32 29 92 136 140 111 132 183 204 148 145 105 95 109 280 329 3 68 116 105 60 15 16 131 146 140 147 179 230 38 70 62 59 60 55 53 57 63 69 73 75 76 77 78